owner,sensor,date,latitude,longitude,vertical_datum,wind_speed,wind_to_direction,wind_speed_of_gust,qcFlag 
LOOP,urn:ioos:station:wmo:lopl1:1,2019-06-01T00:41:00Z,28.8850,-90.0250,10.0,3.1,-9999.0,4.6,'11111222,11111222,11111222' 
LOOP,urn:ioos:station:wmo:lopl1:1,2019-06-01T01:41:00Z,28.8850,-90.0250,10.0,3.1,-9999.0,4.1,'11111222,11111222,11111222' 
LOOP,urn:ioos:station:wmo:lopl1:1,2019-06-01T02:41:00Z,28.8850,-90.0250,10.0,3.1,-9999.0,4.1,'11111222,11111222,11111222' 
LOOP,urn:ioos:station:wmo:lopl1:1,2019-06-01T03:41:00Z,28.8850,-90.0250,10.0,3.6,-9999.0,4.6,'11111222,11111222,11111222' 
LOOP,urn:ioos:station:wmo:lopl1:1,2019-06-01T04:41:00Z,28.8850,-90.0250,10.0,3.1,-9999.0,3.6,'11111222,11111222,11111222' 
LOOP,urn:ioos:station:wmo:lopl1:1,2019-06-01T05:41:00Z,28.8850,-90.0250,10.0,5.1,-9999.0,5.1,'11111222,11111222,11111222' 
LOOP,urn:ioos:station:wmo:lopl1:1,2019-06-01T06:41:00Z,28.8850,-90.0250,10.0,4.1,-9999.0,4.6,'11111222,11111222,11111222' 
LOOP,urn:ioos:station:wmo:lopl1:1,2019-06-01T07:46:00Z,28.8850,-90.0250,10.0,3.6,-9999.0,4.6,'11111222,11111222,11111222' 
LOOP,urn:ioos:station:wmo:lopl1:1,2019-06-01T08:46:00Z,28.8850,-90.0250,10.0,4.6,-9999.0,5.7,'11111222,11111222,11111222' 
LOOP,urn:ioos:station:wmo:lopl1:1,2019-06-01T09:46:00Z,28.8850,-90.0250,10.0,2.6,-9999.0,4.1,'11111222,11111222,11111222' 
LOOP,urn:ioos:station:wmo:lopl1:1,2019-06-01T10:46:00Z,28.8850,-90.0250,10.0,2.1,290.0,3.1,'11111222,11111222,11111222' 
LOOP,urn:ioos:station:wmo:lopl1:1,2019-06-01T11:46:00Z,28.8850,-90.0250,10.0,2.6,320.0,3.6,'11111222,11111222,11111222' 
LOOP,urn:ioos:station:wmo:lopl1:1,2019-06-01T12:46:00Z,28.8850,-90.0250,10.0,1.5,330.0,2.6,'11111222,11111222,11111222' 
LOOP,urn:ioos:station:wmo:lopl1:1,2019-06-01T13:46:00Z,28.8850,-90.0250,10.0,0.5,340.0,2.1,'11111222,11111222,11111222' 
LOOP,urn:ioos:station:wmo:lopl1:1,2019-06-01T14:46:00Z,28.8850,-90.0250,10.0,1.5,270.0,2.1,'11111222,11111222,11111222' 
LOOP,urn:ioos:station:wmo:lopl1:1,2019-06-01T15:46:00Z,28.8850,-90.0250,10.0,1.0,320.0,2.1,'11111222,11111222,11111222' 
LOOP,urn:ioos:station:wmo:lopl1:1,2019-06-01T16:46:00Z,28.8850,-90.0250,10.0,1.0,-9999.0,2.6,'11111222,11111222,11111222' 
LOOP,urn:ioos:station:wmo:lopl1:1,2019-06-01T17:46:00Z,28.8850,-90.0250,10.0,1.0,-9999.0,2.6,'11111222,11111222,11111222' 
LOOP,urn:ioos:station:wmo:lopl1:1,2019-06-01T18:46:00Z,28.8850,-90.0250,10.0,2.1,290.0,4.6,'11111222,11111222,11111222' 
LOOP,urn:ioos:station:wmo:lopl1:1,2019-06-01T19:46:00Z,28.8850,-90.0250,10.0,1.5,300.0,3.6,'11111222,11111222,11111222' 
LOOP,urn:ioos:station:wmo:lopl1:1,2019-06-01T20:51:00Z,28.8850,-90.0250,10.0,2.6,290.0,4.1,'11111222,11111222,11111222' 
LOOP,urn:ioos:station:wmo:lopl1:1,2019-06-01T21:51:00Z,28.8850,-90.0250,10.0,2.6,260.0,4.6,'11111222,11111222,11111222' 
LOOP,urn:ioos:station:wmo:lopl1:1,2019-06-01T22:51:00Z,28.8850,-90.0250,10.0,2.6,280.0,4.6,'11111222,11111222,11111222' 
LOOP,urn:ioos:station:wmo:lopl1:1,2019-06-01T23:51:00Z,28.8850,-90.0250,10.0,2.6,-9999.0,4.6,'11111222,11111222,11111222' 
LOOP,urn:ioos:station:wmo:lopl1:1,2019-06-02T00:51:00Z,28.8850,-90.0250,10.0,3.6,-9999.0,6.2,'11111222,11111222,11111222' 
LOOP,urn:ioos:station:wmo:lopl1:1,2019-06-02T01:51:00Z,28.8850,-90.0250,10.0,4.6,-9999.0,6.2,'11111222,11111222,11111222' 
LOOP,urn:ioos:station:wmo:lopl1:1,2019-06-02T02:51:00Z,28.8850,-90.0250,10.0,4.6,-9999.0,6.7,'11111222,11111222,11111222' 
LOOP,urn:ioos:station:wmo:lopl1:1,2019-06-02T03:51:00Z,28.8850,-90.0250,10.0,3.9,-9999.0,6.0,'11111222,99999999,11111222' 
LOOP,urn:ioos:station:wmo:lopl1:1,2019-06-02T04:51:00Z,28.8850,-90.0250,10.0,5.1,-9999.0,6.2,'11111222,11111222,11111222' 
LOOP,urn:ioos:station:wmo:lopl1:1,2019-06-02T05:51:00Z,28.8850,-90.0250,10.0,5.1,-9999.0,7.2,'11111222,11111222,11111222' 
LOOP,urn:ioos:station:wmo:lopl1:1,2019-06-02T06:51:00Z,28.8850,-90.0250,10.0,2.6,-9999.0,5.7,'11111222,11111222,11111222' 
LOOP,urn:ioos:station:wmo:lopl1:1,2019-06-02T07:51:00Z,28.8850,-90.0250,10.0,3.5,-9999.0,6.4,'11111222,99999999,11111222' 
LOOP,urn:ioos:station:wmo:lopl1:1,2019-06-02T08:51:00Z,28.8850,-90.0250,10.0,2.6,270.0,4.6,'11111222,11111222,11111222' 
LOOP,urn:ioos:station:wmo:lopl1:1,2019-06-02T09:51:00Z,28.8850,-90.0250,10.0,3.5,266.0,5.8,'11111222,11111222,11111222' 
LOOP,urn:ioos:station:wmo:lopl1:1,2019-06-02T10:56:00Z,28.8850,-90.0250,10.0,3.6,280.0,5.7,'11111222,11111222,11111222' 
LOOP,urn:ioos:station:wmo:lopl1:1,2019-06-02T11:56:00Z,28.8850,-90.0250,10.0,3.6,280.0,5.7,'11111222,11111222,11111222' 
LOOP,urn:ioos:station:wmo:lopl1:1,2019-06-02T12:56:00Z,28.8850,-90.0250,10.0,4.1,280.0,5.1,'11111222,11111222,11111222' 
LOOP,urn:ioos:station:wmo:lopl1:1,2019-06-02T13:56:00Z,28.8850,-90.0250,10.0,3.2,296.0,4.6,'11111222,11111222,11111222' 
LOOP,urn:ioos:station:wmo:lopl1:1,2019-06-02T14:56:00Z,28.8850,-90.0250,10.0,3.6,310.0,5.1,'11111222,11111222,11111222' 
LOOP,urn:ioos:station:wmo:lopl1:1,2019-06-02T15:56:00Z,28.8850,-90.0250,10.0,3.1,308.0,5.2,'11111222,11111222,11111222' 
LOOP,urn:ioos:station:wmo:lopl1:1,2019-06-02T16:56:00Z,28.8850,-90.0250,10.0,4.6,340.0,5.7,'11111222,11111222,11111222' 
LOOP,urn:ioos:station:wmo:lopl1:1,2019-06-02T17:56:00Z,28.8850,-90.0250,10.0,3.1,320.0,5.1,'11111222,11111222,11111222' 
LOOP,urn:ioos:station:wmo:lopl1:1,2019-06-02T18:56:00Z,28.8850,-90.0250,10.0,2.6,330.0,4.1,'11111222,11111222,11111222' 
LOOP,urn:ioos:station:wmo:lopl1:1,2019-06-02T19:56:00Z,28.8850,-90.0250,10.0,2.4,299.0,3.8,'11111222,11111222,11111222' 
LOOP,urn:ioos:station:wmo:lopl1:1,2019-06-02T20:56:00Z,28.8850,-90.0250,10.0,2.6,290.0,3.6,'11111222,11111222,11111222' 
LOOP,urn:ioos:station:wmo:lopl1:1,2019-06-02T21:56:00Z,28.8850,-90.0250,10.0,2.6,290.0,4.1,'11111222,11111222,11111222' 
LOOP,urn:ioos:station:wmo:lopl1:1,2019-06-02T22:56:00Z,28.8850,-90.0250,10.0,2.1,280.0,3.1,'11111222,11111222,11111222' 
LOOP,urn:ioos:station:wmo:lopl1:1,2019-06-03T00:01:00Z,28.8850,-90.0250,10.0,3.1,320.0,6.7,'11111222,11111222,11111222' 
LOOP,urn:ioos:station:wmo:lopl1:1,2019-06-03T01:01:00Z,28.8850,-90.0250,10.0,2.6,-9999.0,4.1,'11111222,11111222,11111222' 
LOOP,urn:ioos:station:wmo:lopl1:1,2019-06-03T02:01:00Z,28.8850,-90.0250,10.0,2.6,290.0,3.1,'11111222,11111222,11111222' 
LOOP,urn:ioos:station:wmo:lopl1:1,2019-06-03T03:01:00Z,28.8850,-90.0250,10.0,1.0,300.0,1.5,'11111222,11111222,11111222' 
LOOP,urn:ioos:station:wmo:lopl1:1,2019-06-03T04:01:00Z,28.8850,-90.0250,10.0,1.5,-9999.0,2.1,'11111222,11111222,11111222' 
LOOP,urn:ioos:station:wmo:lopl1:1,2019-06-03T05:01:00Z,28.8850,-90.0250,10.0,3.1,-9999.0,4.1,'11111222,11111222,11111222' 
LOOP,urn:ioos:station:wmo:lopl1:1,2019-06-03T06:01:00Z,28.8850,-90.0250,10.0,2.6,-9999.0,4.6,'11111222,11111222,11111222' 
LOOP,urn:ioos:station:wmo:lopl1:1,2019-06-03T07:01:00Z,28.8850,-90.0250,10.0,2.6,280.0,4.1,'11111222,11111222,11111222' 
LOOP,urn:ioos:station:wmo:lopl1:1,2019-06-03T08:01:00Z,28.8850,-90.0250,10.0,3.1,290.0,4.1,'11111222,11111222,11111222' 
LOOP,urn:ioos:station:wmo:lopl1:1,2019-06-03T09:01:00Z,28.8850,-90.0250,10.0,2.6,290.0,4.1,'11111222,11111222,11111222' 
LOOP,urn:ioos:station:wmo:lopl1:1,2019-06-03T10:01:00Z,28.8850,-90.0250,10.0,3.1,280.0,4.6,'11111222,11111222,11111222' 
LOOP,urn:ioos:station:wmo:lopl1:1,2019-06-03T11:06:00Z,28.8850,-90.0250,10.0,2.6,290.0,4.1,'11111222,11111222,11111222' 
LOOP,urn:ioos:station:wmo:lopl1:1,2019-06-03T12:06:00Z,28.8850,-90.0250,10.0,7.2,-9999.0,9.8,'11111222,11111222,11111222' 
LOOP,urn:ioos:station:wmo:lopl1:1,2019-06-03T13:06:00Z,28.8850,-90.0250,10.0,2.6,-9999.0,4.6,'11111222,11111222,11111222' 
LOOP,urn:ioos:station:wmo:lopl1:1,2019-06-03T14:06:00Z,28.8850,-90.0250,10.0,4.1,-9999.0,6.2,'11111222,11111222,11111222' 
LOOP,urn:ioos:station:wmo:lopl1:1,2019-06-03T15:06:00Z,28.8850,-90.0250,10.0,2.1,-9999.0,2.6,'11111222,11111222,11111222' 
LOOP,urn:ioos:station:wmo:lopl1:1,2019-06-03T16:06:00Z,28.8850,-90.0250,10.0,0.5,120.0,1.0,'11111222,11111222,11111222' 
LOOP,urn:ioos:station:wmo:lopl1:1,2019-06-03T17:06:00Z,28.8850,-90.0250,10.0,1.0,-9999.0,2.1,'11111222,11111222,11111222' 
LOOP,urn:ioos:station:wmo:lopl1:1,2019-06-03T18:06:00Z,28.8850,-90.0250,10.0,1.0,10.0,2.6,'11111222,11111222,11111222' 
LOOP,urn:ioos:station:wmo:lopl1:1,2019-06-03T19:06:00Z,28.8850,-90.0250,10.0,1.5,10.0,2.1,'11111222,11111222,11111222' 
LOOP,urn:ioos:station:wmo:lopl1:1,2019-06-03T20:06:00Z,28.8850,-90.0250,10.0,1.5,90.0,2.6,'11111222,11111222,11111222' 
LOOP,urn:ioos:station:wmo:lopl1:1,2019-06-03T21:06:00Z,28.8850,-90.0250,10.0,1.0,40.0,1.5,'11111222,11111222,11111222' 
LOOP,urn:ioos:station:wmo:lopl1:1,2019-06-03T22:06:00Z,28.8850,-90.0250,10.0,2.1,130.0,3.1,'11111222,11111222,11111222' 
LOOP,urn:ioos:station:wmo:lopl1:1,2019-06-03T23:06:00Z,28.8850,-90.0250,10.0,3.1,110.0,4.6,'11111222,11111222,11111222' 
LOOP,urn:ioos:station:wmo:lopl1:1,2019-06-04T00:11:00Z,28.8850,-90.0250,10.0,4.1,140.0,5.7,'11111222,11111222,11111222' 
LOOP,urn:ioos:station:wmo:lopl1:1,2019-06-04T01:11:00Z,28.8850,-90.0250,10.0,4.6,160.0,6.2,'11111222,11111222,11111222' 
LOOP,urn:ioos:station:wmo:lopl1:1,2019-06-04T02:11:00Z,28.8850,-90.0250,10.0,5.1,160.0,5.7,'11111222,11111222,11111222' 
LOOP,urn:ioos:station:wmo:lopl1:1,2019-06-04T03:11:00Z,28.8850,-90.0250,10.0,4.6,160.0,5.7,'11111222,11111222,11111222' 
LOOP,urn:ioos:station:wmo:lopl1:1,2019-06-04T04:11:00Z,28.8850,-90.0250,10.0,4.6,-9999.0,6.2,'11111222,11111222,11111222' 
LOOP,urn:ioos:station:wmo:lopl1:1,2019-06-04T05:12:00Z,28.8850,-90.0250,10.0,4.6,-9999.0,6.2,'11111222,11111222,11111222' 
LOOP,urn:ioos:station:wmo:lopl1:1,2019-06-04T06:12:00Z,28.8850,-90.0250,10.0,4.6,-9999.0,6.2,'11111222,11111222,11111222' 
LOOP,urn:ioos:station:wmo:lopl1:1,2019-06-04T07:12:00Z,28.8850,-90.0250,10.0,4.1,-9999.0,4.6,'11111222,11111222,11111222' 
LOOP,urn:ioos:station:wmo:lopl1:1,2019-06-04T08:12:00Z,28.8850,-90.0250,10.0,2.6,-9999.0,3.6,'11111222,11111222,11111222' 
LOOP,urn:ioos:station:wmo:lopl1:1,2019-06-04T09:12:00Z,28.8850,-90.0250,10.0,1.5,-9999.0,2.1,'11111222,11111222,11111222' 
LOOP,urn:ioos:station:wmo:lopl1:1,2019-06-04T10:12:00Z,28.8850,-90.0250,10.0,1.0,180.0,2.1,'11111222,11111222,11111222' 
LOOP,urn:ioos:station:wmo:lopl1:1,2019-06-04T11:17:00Z,28.8850,-90.0250,10.0,2.6,-9999.0,3.6,'11111222,11111222,11111222' 
LOOP,urn:ioos:station:wmo:lopl1:1,2019-06-04T12:17:00Z,28.8850,-90.0250,10.0,2.1,160.0,3.1,'11111222,11111222,11111222' 
LOOP,urn:ioos:station:wmo:lopl1:1,2019-06-04T13:17:00Z,28.8850,-90.0250,10.0,2.6,160.0,3.6,'11111222,11111222,11111222' 
LOOP,urn:ioos:station:wmo:lopl1:1,2019-06-04T14:17:00Z,28.8850,-90.0250,10.0,2.5,129.0,3.6,'11111222,11111222,11111222' 
LOOP,urn:ioos:station:wmo:lopl1:1,2019-06-04T15:17:00Z,28.8850,-90.0250,10.0,3.5,142.0,4.2,'11111222,11111222,11111222' 
LOOP,urn:ioos:station:wmo:lopl1:1,2019-06-04T16:17:00Z,28.8850,-90.0250,10.0,3.5,146.0,4.5,'11111222,11111222,11111222' 
LOOP,urn:ioos:station:wmo:lopl1:1,2019-06-04T17:17:00Z,28.8850,-90.0250,10.0,3.6,160.0,4.6,'11111222,11111222,11111222' 
LOOP,urn:ioos:station:wmo:lopl1:1,2019-06-04T18:17:00Z,28.8850,-90.0250,10.0,5.1,160.0,6.2,'11111222,11111222,11111222' 
LOOP,urn:ioos:station:wmo:lopl1:1,2019-06-04T19:17:00Z,28.8850,-90.0250,10.0,5.7,160.0,6.7,'11111222,11111222,11111222' 
LOOP,urn:ioos:station:wmo:lopl1:1,2019-06-04T20:17:00Z,28.8850,-90.0250,10.0,5.7,160.0,6.7,'11111222,11111222,11111222' 
LOOP,urn:ioos:station:wmo:lopl1:1,2019-06-04T21:17:00Z,28.8850,-90.0250,10.0,5.7,150.0,6.7,'11111222,11111222,11111222' 
LOOP,urn:ioos:station:wmo:lopl1:1,2019-06-04T22:17:00Z,28.8850,-90.0250,10.0,7.2,160.0,7.7,'11111222,11111222,11111222' 
LOOP,urn:ioos:station:wmo:lopl1:1,2019-06-04T23:22:00Z,28.8850,-90.0250,10.0,5.7,160.0,6.2,'11111222,11111222,11111222' 
LOOP,urn:ioos:station:wmo:lopl1:1,2019-06-05T00:22:00Z,28.8850,-90.0250,10.0,5.7,160.0,6.2,'11111222,11111222,11111222' 
LOOP,urn:ioos:station:wmo:lopl1:1,2019-06-05T01:22:00Z,28.8850,-90.0250,10.0,6.2,160.0,7.7,'11111222,11111222,11111222' 
LOOP,urn:ioos:station:wmo:lopl1:1,2019-06-05T02:22:00Z,28.8850,-90.0250,10.0,6.2,170.0,6.7,'11111222,11111222,11111222' 
LOOP,urn:ioos:station:wmo:lopl1:1,2019-06-05T03:22:00Z,28.8850,-90.0250,10.0,4.6,170.0,7.2,'11111222,11111222,11111222' 
LOOP,urn:ioos:station:wmo:lopl1:1,2019-06-05T04:22:00Z,28.8850,-90.0250,10.0,5.1,160.0,7.2,'11111222,11111222,11111222' 
LOOP,urn:ioos:station:wmo:lopl1:1,2019-06-05T05:22:00Z,28.8850,-90.0250,10.0,4.1,180.0,6.2,'11111222,11111222,11111222' 
LOOP,urn:ioos:station:wmo:lopl1:1,2019-06-05T06:22:00Z,28.8850,-90.0250,10.0,4.6,170.0,6.2,'11111222,11111222,11111222' 
LOOP,urn:ioos:station:wmo:lopl1:1,2019-06-05T07:22:00Z,28.8850,-90.0250,10.0,4.6,-9999.0,6.7,'11111222,11111222,11111222' 
LOOP,urn:ioos:station:wmo:lopl1:1,2019-06-05T08:22:00Z,28.8850,-90.0250,10.0,4.6,-9999.0,6.2,'11111222,11111222,11111222' 
LOOP,urn:ioos:station:wmo:lopl1:1,2019-06-05T09:22:00Z,28.8850,-90.0250,10.0,4.1,170.0,5.7,'11111222,11111222,11111222' 
LOOP,urn:ioos:station:wmo:lopl1:1,2019-06-05T10:27:00Z,28.8850,-90.0250,10.0,4.6,170.0,6.2,'11111222,11111222,11111222' 
LOOP,urn:ioos:station:wmo:lopl1:1,2019-06-05T11:27:00Z,28.8850,-90.0250,10.0,5.1,160.0,5.7,'11111222,11111222,11111222' 
LOOP,urn:ioos:station:wmo:lopl1:1,2019-06-05T12:27:00Z,28.8850,-90.0250,10.0,3.6,-9999.0,6.2,'11111222,11111222,11111222' 
LOOP,urn:ioos:station:wmo:lopl1:1,2019-06-05T13:27:00Z,28.8850,-90.0250,10.0,4.6,-9999.0,6.2,'11111222,11111222,11111222' 
LOOP,urn:ioos:station:wmo:lopl1:1,2019-06-05T14:27:00Z,28.8850,-90.0250,10.0,7.2,170.0,8.2,'11111222,11111222,11111222' 
LOOP,urn:ioos:station:wmo:lopl1:1,2019-06-05T15:27:00Z,28.8850,-90.0250,10.0,6.7,170.0,7.7,'11111222,11111222,11111222' 
LOOP,urn:ioos:station:wmo:lopl1:1,2019-06-05T16:27:00Z,28.8850,-90.0250,10.0,4.6,-9999.0,7.2,'11111222,11111222,11111222' 
LOOP,urn:ioos:station:wmo:lopl1:1,2019-06-05T17:27:00Z,28.8850,-90.0250,10.0,4.6,170.0,6.2,'11111222,11111222,11111222' 
LOOP,urn:ioos:station:wmo:lopl1:1,2019-06-05T18:27:00Z,28.8850,-90.0250,10.0,6.2,170.0,8.2,'11111222,11111222,11111222' 
LOOP,urn:ioos:station:wmo:lopl1:1,2019-06-05T19:27:00Z,28.8850,-90.0250,10.0,5.7,160.0,7.2,'11111222,11111222,11111222' 
LOOP,urn:ioos:station:wmo:lopl1:1,2019-06-05T20:27:00Z,28.8850,-90.0250,10.0,6.7,160.0,7.2,'11111222,11111222,11111222' 
LOOP,urn:ioos:station:wmo:lopl1:1,2019-06-05T21:27:00Z,28.8850,-90.0250,10.0,6.7,170.0,7.7,'11111222,11111222,11111222' 
LOOP,urn:ioos:station:wmo:lopl1:1,2019-06-05T22:27:00Z,28.8850,-90.0250,10.0,6.2,170.0,8.2,'11111222,11111222,11111222' 
LOOP,urn:ioos:station:wmo:lopl1:1,2019-06-05T23:27:00Z,28.8850,-90.0250,10.0,5.1,-9999.0,7.2,'11111222,11111222,11111222' 
LOOP,urn:ioos:station:wmo:lopl1:1,2019-06-06T00:27:00Z,28.8850,-90.0250,10.0,6.2,170.0,9.3,'11111222,11111222,11111222' 
LOOP,urn:ioos:station:wmo:lopl1:1,2019-06-06T01:32:00Z,28.8850,-90.0250,10.0,6.7,-9999.0,9.3,'11111222,11111222,11111222' 
LOOP,urn:ioos:station:wmo:lopl1:1,2019-06-06T02:32:00Z,28.8850,-90.0250,10.0,6.7,-9999.0,9.8,'11111222,11111222,11111222' 
LOOP,urn:ioos:station:wmo:lopl1:1,2019-06-06T03:32:00Z,28.8850,-90.0250,10.0,6.7,-9999.0,10.3,'11111222,11111222,11111222' 
LOOP,urn:ioos:station:wmo:lopl1:1,2019-06-06T04:32:00Z,28.8850,-90.0250,10.0,6.7,170.0,9.3,'11111222,11111222,11111222' 
LOOP,urn:ioos:station:wmo:lopl1:1,2019-06-06T05:32:00Z,28.8850,-90.0250,10.0,5.7,-9999.0,7.7,'11111222,11111222,11111222' 
LOOP,urn:ioos:station:wmo:lopl1:1,2019-06-06T06:32:00Z,28.8850,-90.0250,10.0,7.7,-9999.0,9.8,'11111222,11111222,11111222' 
LOOP,urn:ioos:station:wmo:lopl1:1,2019-06-06T07:32:00Z,28.8850,-90.0250,10.0,7.2,-9999.0,9.8,'11111222,11111222,11111222' 
LOOP,urn:ioos:station:wmo:lopl1:1,2019-06-06T08:32:00Z,28.8850,-90.0250,10.0,5.1,-9999.0,7.2,'11111222,11111222,11111222' 
LOOP,urn:ioos:station:wmo:lopl1:1,2019-06-06T09:32:00Z,28.8850,-90.0250,10.0,7.2,-9999.0,10.3,'11111222,11111222,11111222' 
LOOP,urn:ioos:station:wmo:lopl1:1,2019-06-06T10:32:00Z,28.8850,-90.0250,10.0,7.2,-9999.0,10.3,'11111222,11111222,11111222' 
LOOP,urn:ioos:station:wmo:lopl1:1,2019-06-06T11:32:00Z,28.8850,-90.0250,10.0,8.8,-9999.0,11.8,'11111222,11111222,11111222' 
LOOP,urn:ioos:station:wmo:lopl1:1,2019-06-06T12:32:00Z,28.8850,-90.0250,10.0,10.3,-9999.0,13.4,'11111222,11111222,11111222' 
LOOP,urn:ioos:station:wmo:lopl1:1,2019-06-06T13:37:00Z,28.8850,-90.0250,10.0,9.8,-9999.0,12.9,'11111222,11111222,11111222' 
LOOP,urn:ioos:station:wmo:lopl1:1,2019-06-06T14:37:00Z,28.8850,-90.0250,10.0,9.8,-9999.0,12.9,'11111222,11111222,11111222' 
LOOP,urn:ioos:station:wmo:lopl1:1,2019-06-06T15:37:00Z,28.8850,-90.0250,10.0,9.8,-9999.0,12.9,'11111222,11111222,11111222' 
LOOP,urn:ioos:station:wmo:lopl1:1,2019-06-06T16:37:00Z,28.8850,-90.0250,10.0,11.3,-9999.0,13.4,'11111222,11111222,11111222' 
LOOP,urn:ioos:station:wmo:lopl1:1,2019-06-06T17:37:00Z,28.8850,-90.0250,10.0,11.8,-9999.0,13.9,'11111222,11111222,11111222' 
LOOP,urn:ioos:station:wmo:lopl1:1,2019-06-06T18:37:00Z,28.8850,-90.0250,10.0,5.1,300.0,8.2,'11111222,11111222,11111222' 
LOOP,urn:ioos:station:wmo:lopl1:1,2019-06-06T19:37:00Z,28.8850,-90.0250,10.0,11.3,-9999.0,14.4,'11111222,11111222,11111222' 
LOOP,urn:ioos:station:wmo:lopl1:1,2019-06-06T20:37:00Z,28.8850,-90.0250,10.0,4.6,270.0,9.8,'11111222,11111222,11111222' 
LOOP,urn:ioos:station:wmo:lopl1:1,2019-06-06T21:37:00Z,28.8850,-90.0250,10.0,7.7,-9999.0,8.8,'11111222,11111222,11111222' 
LOOP,urn:ioos:station:wmo:lopl1:1,2019-06-06T22:37:00Z,28.8850,-90.0250,10.0,6.2,-9999.0,8.2,'11111222,11111222,11111222' 
LOOP,urn:ioos:station:wmo:lopl1:1,2019-06-06T23:37:00Z,28.8850,-90.0250,10.0,8.2,-9999.0,10.3,'11111222,11111222,11111222' 
LOOP,urn:ioos:station:wmo:lopl1:1,2019-06-07T00:37:00Z,28.8850,-90.0250,10.0,8.2,-9999.0,10.3,'11111222,11111222,11111222' 
LOOP,urn:ioos:station:wmo:lopl1:1,2019-06-07T01:37:00Z,28.8850,-90.0250,10.0,11.3,-9999.0,12.9,'11111222,11111222,11111222' 
LOOP,urn:ioos:station:wmo:lopl1:1,2019-06-07T02:37:00Z,28.8850,-90.0250,10.0,12.4,-9999.0,13.4,'11111222,11111222,11111222' 
LOOP,urn:ioos:station:wmo:lopl1:1,2019-06-07T03:42:00Z,28.8850,-90.0250,10.0,11.8,-9999.0,12.9,'11111222,11111222,11111222' 
LOOP,urn:ioos:station:wmo:lopl1:1,2019-06-07T04:42:00Z,28.8850,-90.0250,10.0,11.3,-9999.0,13.4,'11111222,11111222,11111222' 
LOOP,urn:ioos:station:wmo:lopl1:1,2019-06-07T05:42:00Z,28.8850,-90.0250,10.0,10.8,-9999.0,12.9,'11111222,11111222,11111222' 
LOOP,urn:ioos:station:wmo:lopl1:1,2019-06-07T06:42:00Z,28.8850,-90.0250,10.0,10.3,-9999.0,12.4,'11111222,11111222,11111222' 
LOOP,urn:ioos:station:wmo:lopl1:1,2019-06-07T07:42:00Z,28.8850,-90.0250,10.0,8.8,-9999.0,10.8,'11111222,11111222,11111222' 
LOOP,urn:ioos:station:wmo:lopl1:1,2019-06-07T08:42:00Z,28.8850,-90.0250,10.0,8.2,-9999.0,10.3,'11111222,11111222,11111222' 
LOOP,urn:ioos:station:wmo:lopl1:1,2019-06-07T09:42:00Z,28.8850,-90.0250,10.0,9.8,-9999.0,10.8,'11111222,11111222,11111222' 
LOOP,urn:ioos:station:wmo:lopl1:1,2019-06-07T10:42:00Z,28.8850,-90.0250,10.0,8.2,-9999.0,9.8,'11111222,11111222,11111222' 
LOOP,urn:ioos:station:wmo:lopl1:1,2019-06-07T11:42:00Z,28.8850,-90.0250,10.0,7.2,-9999.0,9.3,'11111222,11111222,11111222' 
LOOP,urn:ioos:station:wmo:lopl1:1,2019-06-07T12:42:00Z,28.8850,-90.0250,10.0,8.2,-9999.0,9.3,'11111222,11111222,11111222' 
LOOP,urn:ioos:station:wmo:lopl1:1,2019-06-07T13:47:00Z,28.8850,-90.0250,10.0,6.7,-9999.0,8.2,'11111222,11111222,11111222' 
LOOP,urn:ioos:station:wmo:lopl1:1,2019-06-07T14:47:00Z,28.8850,-90.0250,10.0,7.2,-9999.0,8.8,'11111222,11111222,11111222' 
LOOP,urn:ioos:station:wmo:lopl1:1,2019-06-07T15:47:00Z,28.8850,-90.0250,10.0,7.7,-9999.0,9.8,'11111222,11111222,11111222' 
LOOP,urn:ioos:station:wmo:lopl1:1,2019-06-07T16:47:00Z,28.8850,-90.0250,10.0,5.7,-9999.0,8.2,'11111222,11111222,11111222' 
LOOP,urn:ioos:station:wmo:lopl1:1,2019-06-07T17:47:00Z,28.8850,-90.0250,10.0,6.7,-9999.0,9.3,'11111222,11111222,11111222' 
LOOP,urn:ioos:station:wmo:lopl1:1,2019-06-07T18:47:00Z,28.8850,-90.0250,10.0,6.7,-9999.0,8.2,'11111222,11111222,11111222' 
LOOP,urn:ioos:station:wmo:lopl1:1,2019-06-07T19:47:00Z,28.8850,-90.0250,10.0,8.2,-9999.0,9.3,'11111222,11111222,11111222' 
LOOP,urn:ioos:station:wmo:lopl1:1,2019-06-07T20:47:00Z,28.8850,-90.0250,10.0,6.2,-9999.0,9.3,'11111222,11111222,11111222' 
LOOP,urn:ioos:station:wmo:lopl1:1,2019-06-07T21:47:00Z,28.8850,-90.0250,10.0,7.2,-9999.0,9.3,'11111222,11111222,11111222' 
LOOP,urn:ioos:station:wmo:lopl1:1,2019-06-07T22:47:00Z,28.8850,-90.0250,10.0,6.2,-9999.0,7.2,'11111222,11111222,11111222' 
LOOP,urn:ioos:station:wmo:lopl1:1,2019-06-07T23:48:00Z,28.8850,-90.0250,10.0,10.3,-9999.0,11.3,'11111222,11111222,11111222' 
LOOP,urn:ioos:station:wmo:lopl1:1,2019-06-08T00:53:00Z,28.8850,-90.0250,10.0,10.3,-9999.0,11.3,'11111222,11111222,11111222' 
LOOP,urn:ioos:station:wmo:lopl1:1,2019-06-08T01:53:00Z,28.8850,-90.0250,10.0,9.8,-9999.0,11.3,'11111222,11111222,11111222' 
LOOP,urn:ioos:station:wmo:lopl1:1,2019-06-08T02:53:00Z,28.8850,-90.0250,10.0,7.7,-9999.0,10.8,'11111222,11111222,11111222' 
LOOP,urn:ioos:station:wmo:lopl1:1,2019-06-08T03:53:00Z,28.8850,-90.0250,10.0,8.8,-9999.0,12.9,'11111222,11111222,11111222' 
LOOP,urn:ioos:station:wmo:lopl1:1,2019-06-08T04:53:00Z,28.8850,-90.0250,10.0,4.1,300.0,6.7,'11111222,11111222,11111222' 
LOOP,urn:ioos:station:wmo:lopl1:1,2019-06-08T05:53:00Z,28.8850,-90.0250,10.0,4.1,270.0,7.2,'11111222,11111222,11111222' 
LOOP,urn:ioos:station:wmo:lopl1:1,2019-06-08T06:53:00Z,28.8850,-90.0250,10.0,6.2,-9999.0,11.3,'11111222,11111222,11111222' 
LOOP,urn:ioos:station:wmo:lopl1:1,2019-06-08T07:53:00Z,28.8850,-90.0250,10.0,3.6,-9999.0,7.7,'11111222,11111222,11111222' 
LOOP,urn:ioos:station:wmo:lopl1:1,2019-06-08T08:53:00Z,28.8850,-90.0250,10.0,5.1,-9999.0,9.3,'11111222,11111222,11111222' 
LOOP,urn:ioos:station:wmo:lopl1:1,2019-06-08T09:53:00Z,28.8850,-90.0250,10.0,5.1,280.0,9.8,'11111222,11111222,11111222' 
LOOP,urn:ioos:station:wmo:lopl1:1,2019-06-08T10:53:00Z,28.8850,-90.0250,10.0,8.8,-9999.0,11.8,'11111222,11111222,11111222' 
LOOP,urn:ioos:station:wmo:lopl1:1,2019-06-08T11:58:00Z,28.8850,-90.0250,10.0,9.3,-9999.0,12.9,'11111222,11111222,11111222' 
LOOP,urn:ioos:station:wmo:lopl1:1,2019-06-08T12:58:00Z,28.8850,-90.0250,10.0,6.2,-9999.0,10.8,'11111222,11111222,11111222' 
LOOP,urn:ioos:station:wmo:lopl1:1,2019-06-08T13:58:00Z,28.8850,-90.0250,10.0,10.8,-9999.0,14.4,'11111222,11111222,11111222' 
LOOP,urn:ioos:station:wmo:lopl1:1,2019-06-08T14:58:00Z,28.8850,-90.0250,10.0,6.7,280.0,9.8,'11111222,11111222,11111222' 
LOOP,urn:ioos:station:wmo:lopl1:1,2019-06-08T15:58:00Z,28.8850,-90.0250,10.0,6.2,300.0,8.2,'11111222,11111222,11111222' 
LOOP,urn:ioos:station:wmo:lopl1:1,2019-06-08T17:03:00Z,28.8850,-90.0250,10.0,4.1,300.0,6.2,'11111222,11111222,11111222' 
LOOP,urn:ioos:station:wmo:lopl1:1,2019-06-08T18:03:00Z,28.8850,-90.0250,10.0,4.1,280.0,6.2,'11111222,11111222,11111222' 
LOOP,urn:ioos:station:wmo:lopl1:1,2019-06-08T19:03:00Z,28.8850,-90.0250,10.0,4.1,272.0,5.8,'11111222,11111222,11111222' 
LOOP,urn:ioos:station:wmo:lopl1:1,2019-06-08T20:03:00Z,28.8850,-90.0250,10.0,2.2,-9999.0,4.7,'11111222,99999999,11111222' 
LOOP,urn:ioos:station:wmo:lopl1:1,2019-06-08T21:03:00Z,28.8850,-90.0250,10.0,3.9,276.0,5.3,'11111222,11111222,11111222' 
LOOP,urn:ioos:station:wmo:lopl1:1,2019-06-08T22:03:00Z,28.8850,-90.0250,10.0,3.7,287.0,5.5,'11111222,11111222,11111222' 
LOOP,urn:ioos:station:wmo:lopl1:1,2019-06-08T23:03:00Z,28.8850,-90.0250,10.0,4.7,282.0,7.4,'11111222,11111222,11111222' 
LOOP,urn:ioos:station:wmo:lopl1:1,2019-06-09T00:03:00Z,28.8850,-90.0250,10.0,4.1,280.0,6.7,'11111222,11111222,11111222' 
LOOP,urn:ioos:station:wmo:lopl1:1,2019-06-09T01:03:00Z,28.8850,-90.0250,10.0,5.1,280.0,7.2,'11111222,11111222,11111222' 
LOOP,urn:ioos:station:wmo:lopl1:1,2019-06-09T02:03:00Z,28.8850,-90.0250,10.0,5.7,300.0,7.2,'11111222,11111222,11111222' 
LOOP,urn:ioos:station:wmo:lopl1:1,2019-06-09T03:03:00Z,28.8850,-90.0250,10.0,5.1,300.0,6.7,'11111222,11111222,11111222' 
LOOP,urn:ioos:station:wmo:lopl1:1,2019-06-09T04:03:00Z,28.8850,-90.0250,10.0,5.1,300.0,6.2,'11111222,11111222,11111222' 